GAP9123 RPLK-RPLK

Flight info

Callsign GAP9123
Flight time 0h 20m
Altitude 13000
Route DOMGU DCT KADTO DCT BIKOL DCT PIDUR
Aircraft A321/M-SDE3FGHIRWY/LB1

Departure

Time 2026-04-14 02:57
Airport Bicol International Airport (RPLK)

Arrival

Time 2026-04-14 03:17
Airport Bicol International Airport (RPLK)
Time Latitude Longitude Altitude Speed Heading
2026-04-14 02:37 13.11277 123.68134 326 ft 0 kts 136°
2026-04-14 02:48 13.11285 123.68125 326 ft 2 kts 136°
2026-04-14 02:48 13.11296 123.68115 326 ft 2 kts 136°
2026-04-14 02:48 13.11307 123.68104 326 ft 2 kts 136°
2026-04-14 02:49 13.11318 123.68092 326 ft 2 kts 139°
2026-04-14 02:49 13.11332 123.68088 326 ft 2 kts 185°
2026-04-14 02:49 13.11346 123.68092 326 ft 1 kts 220°
2026-04-14 02:49 13.11350 123.68097 326 ft 1 kts 231°
2026-04-14 02:50 13.11352 123.68100 326 ft 0 kts 227°
2026-04-14 02:51 13.11352 123.68099 326 ft 0 kts 227°
2026-04-14 02:51 13.11346 123.68094 326 ft 1 kts 227°
2026-04-14 02:52 13.11332 123.68077 326 ft 6 kts 227°
2026-04-14 02:52 13.11282 123.68024 326 ft 12 kts 226°
2026-04-14 02:52 13.11234 123.67955 326 ft 11 kts 265°
2026-04-14 02:52 13.11280 123.67886 326 ft 12 kts 316°
2026-04-14 02:53 13.11305 123.67809 326 ft 12 kts 246°
2026-04-14 02:53 13.11246 123.67738 325 ft 13 kts 227°
2026-04-14 02:53 13.11180 123.67667 325 ft 13 kts 227°
2026-04-14 02:53 13.11112 123.67593 325 ft 14 kts 227°
2026-04-14 02:54 13.11043 123.67516 325 ft 14 kts 227°
2026-04-14 02:54 13.10970 123.67437 325 ft 15 kts 227°
2026-04-14 02:54 13.10896 123.67355 325 ft 15 kts 227°
2026-04-14 02:54 13.10821 123.67273 325 ft 15 kts 227°
2026-04-14 02:55 13.10745 123.67190 325 ft 16 kts 227°
2026-04-14 02:55 13.10668 123.67104 325 ft 16 kts 226°
2026-04-14 02:55 13.10580 123.67030 325 ft 16 kts 218°
2026-04-14 02:55 13.10512 123.66975 325 ft 5 kts 220°
2026-04-14 02:56 13.10514 123.66949 325 ft 4 kts 346°
2026-04-14 02:56 13.10547 123.66972 325 ft 6 kts 47°
2026-04-14 02:56 13.10578 123.67007 325 ft 8 kts 47°
2026-04-14 02:56 13.10762 123.67208 325 ft 77 kts 47°
2026-04-14 02:57 13.11293 123.67792 326 ft 145 kts 46°
2026-04-14 02:57 13.12071 123.68639 681 ft 170 kts 46°
2026-04-14 02:57 13.12881 123.69552 1309 ft 181 kts 47°
2026-04-14 02:57 13.13724 123.70532 2057 ft 186 kts 48°
2026-04-14 02:58 13.14598 123.71551 2658 ft 195 kts 48°
2026-04-14 02:58 13.15573 123.72654 2992 ft 222 kts 46°
2026-04-14 02:58 13.16695 123.73852 3524 ft 240 kts 46°
2026-04-14 02:58 13.17884 123.75126 4073 ft 257 kts 46°
2026-04-14 02:59 13.19274 123.76634 4943 ft 264 kts 47°
2026-04-14 02:59 13.20698 123.78194 5922 ft 266 kts 47°
2026-04-14 02:59 13.22155 123.79710 6831 ft 269 kts 39°
2026-04-14 02:59 13.24088 123.80518 7678 ft 276 kts
2026-04-14 03:00 13.26258 123.80212 8527 ft 284 kts 343°
2026-04-14 03:00 13.28394 123.79411 9318 ft 288 kts 343°
2026-04-14 03:00 13.30486 123.78625 10025 ft 293 kts 343°
2026-04-14 03:00 13.32555 123.77857 10543 ft 303 kts 343°
2026-04-14 03:01 13.34785 123.77038 10863 ft 321 kts 343°
2026-04-14 03:01 13.36946 123.76247 11255 ft 333 kts 343°
2026-04-14 03:01 13.39142 123.75441 11858 ft 336 kts 343°
2026-04-14 03:01 13.41369 123.74577 12466 ft 340 kts 337°
2026-04-14 03:02 13.43290 123.73058 12840 ft 349 kts 312°
2026-04-14 03:02 13.44464 123.70828 12981 ft 355 kts 288°
2026-04-14 03:02 13.44677 123.68330 12990 ft 358 kts 264°
2026-04-14 03:02 13.43972 123.65866 13011 ft 358 kts 249°
2026-04-14 03:03 13.43041 123.63502 13008 ft 358 kts 248°
2026-04-14 03:03 13.42110 123.61134 13009 ft 357 kts 249°
2026-04-14 03:03 13.41193 123.58756 13016 ft 358 kts 249°
2026-04-14 03:03 13.40301 123.56406 13017 ft 357 kts 249°
2026-04-14 03:04 13.39406 123.54022 13015 ft 357 kts 249°
2026-04-14 03:04 13.38518 123.51645 13013 ft 357 kts 250°
2026-04-14 03:04 13.37632 123.49265 12776 ft 359 kts 250°
2026-04-14 03:04 13.36740 123.46867 12345 ft 357 kts 250°
2026-04-14 03:05 13.35863 123.44509 11916 ft 355 kts 250°
2026-04-14 03:05 13.34982 123.42141 11482 ft 353 kts 250°
2026-04-14 03:05 13.34113 123.39806 11056 ft 351 kts 249°
2026-04-14 03:05 13.33243 123.37467 10632 ft 350 kts 250°
2026-04-14 03:06 13.32377 123.35140 10204 ft 348 kts 249°
2026-04-14 03:06 13.31513 123.32817 9984 ft 339 kts 249°
2026-04-14 03:06 13.30694 123.30620 9970 ft 323 kts 249°
2026-04-14 03:06 13.29911 123.28518 9963 ft 308 kts 249°
2026-04-14 03:07 13.29049 123.26540 9661 ft 306 kts 236°
2026-04-14 03:07 13.27471 123.25108 9290 ft 301 kts 203°
2026-04-14 03:07 13.25473 123.24685 8942 ft 293 kts 174°
2026-04-14 03:07 13.23512 123.25244 8581 ft 284 kts 147°
2026-04-14 03:08 13.22010 123.26553 8232 ft 278 kts 130°
2026-04-14 03:08 13.20693 123.28008 7880 ft 278 kts 130°
2026-04-14 03:08 13.19372 123.29456 7526 ft 278 kts 130°
2026-04-14 03:08 13.18043 123.30889 7172 ft 278 kts 131°
2026-04-14 03:09 13.16698 123.32323 6817 ft 278 kts 131°
2026-04-14 03:09 13.15340 123.33761 6459 ft 278 kts 131°
2026-04-14 03:09 13.13988 123.35188 6103 ft 278 kts 131°
2026-04-14 03:09 13.12652 123.36597 5751 ft 278 kts 131°
2026-04-14 03:10 13.11296 123.38026 5393 ft 279 kts 131°
2026-04-14 03:10 13.09928 123.39464 5060 ft 277 kts 131°
2026-04-14 03:10 13.08613 123.40848 4970 ft 266 kts 131°
2026-04-14 03:10 13.07341 123.42182 4964 ft 252 kts 131°
2026-04-14 03:11 13.06123 123.43463 4746 ft 248 kts 131°
2026-04-14 03:11 13.05143 123.44868 4471 ft 242 kts 108°
2026-04-14 03:11 13.04901 123.46543 4209 ft 235 kts 82°
2026-04-14 03:11 13.05297 123.48143 3954 ft 232 kts 70°
2026-04-14 03:12 13.05807 123.49698 3692 ft 230 kts 70°
2026-04-14 03:12 13.06315 123.51250 3430 ft 229 kts 70°
2026-04-14 03:12 13.06823 123.52832 3172 ft 227 kts 70°
2026-04-14 03:12 13.07325 123.54418 2948 ft 226 kts 70°
2026-04-14 03:13 13.07812 123.55974 2753 ft 223 kts 71°
2026-04-14 03:13 13.08281 123.57477 2562 ft 220 kts 70°
2026-04-14 03:13 13.08738 123.58946 2434 ft 212 kts 71°
2026-04-14 03:13 13.09174 123.60349 2267 ft 203 kts 71°
2026-04-14 03:14 13.09603 123.61734 2049 ft 196 kts 71°
2026-04-14 03:14 13.10006 123.63033 1835 ft 190 kts 70°
2026-04-14 03:14 13.10387 123.64269 1664 ft 169 kts 70°
2026-04-14 03:14 13.10731 123.65364 1468 ft 152 kts 67°
2026-04-14 03:15 13.11189 123.66274 1248 ft 139 kts 57°
2026-04-14 03:15 13.11708 123.67100 1087 ft 137 kts 55°
2026-04-14 03:15 13.12238 123.67925 972 ft 138 kts 55°
2026-04-14 03:15 13.12766 123.68752 849 ft 138 kts 56°
2026-04-14 03:16 13.13288 123.69575 733 ft 138 kts 56°
2026-04-14 03:16 13.13809 123.70401 602 ft 137 kts 56°
2026-04-14 03:16 13.14324 123.71214 429 ft 137 kts 56°
2026-04-14 03:16 13.14843 123.72041 251 ft 136 kts 56°
2026-04-14 03:17 13.15356 123.72855 101 ft 135 kts 55°
2026-04-14 03:17 13.15990 123.73859 64 ft 46 kts 57°
2026-04-14 03:17 13.16082 123.74006 62 ft 11 kts 57°
2026-04-14 03:18 13.16117 123.74060 61 ft 5 kts 57°
2026-04-14 03:18 13.16140 123.74083 61 ft 5 kts 27°
2026-04-14 03:18 13.16173 123.74103 61 ft 4 kts 57°
2026-04-14 03:18 13.16158 123.74116 61 ft 5 kts 211°
2026-04-14 03:19 13.16127 123.74078 61 ft 10 kts 236°
2026-04-14 03:19 13.16073 123.73991 62 ft 15 kts 237°
2026-04-14 03:19 13.16016 123.73899 64 ft 15 kts 238°
2026-04-14 03:19 13.15960 123.73811 65 ft 14 kts 237°
2026-04-14 03:20 13.15907 123.73728 68 ft 13 kts 237°
2026-04-14 03:20 13.15859 123.73651 70 ft 12 kts 237°
2026-04-14 03:20 13.15815 123.73581 72 ft 11 kts 237°
2026-04-14 03:20 13.15775 123.73517 74 ft 10 kts 237°
2026-04-14 03:21 13.15731 123.73448 76 ft 13 kts 237°
2026-04-14 03:21 13.15668 123.73350 79 ft 19 kts 238°
2026-04-14 03:21 13.15599 123.73238 81 ft 17 kts 237°
2026-04-14 03:21 13.15533 123.73132 83 ft 17 kts 238°
2026-04-14 03:22 13.15477 123.73059 83 ft 10 kts 208°
2026-04-14 03:22 13.15402 123.73040 83 ft 11 kts 192°
2026-04-14 03:22 13.15352 123.73022 84 ft 7 kts 219°
2026-04-14 03:22 13.15330 123.72993 84 ft 3 kts 235°
2026-04-14 03:23 13.15307 123.72957 84 ft 8 kts 237°
2026-04-14 03:23 13.15277 123.72938 84 ft 5 kts 175°
2026-04-14 03:23 13.15254 123.72946 84 ft 3 kts 150°
2026-04-14 03:23 13.15247 123.72951 84 ft 0 kts 148°